When you browse on this site, cookies collect data to enhance your experience and personalize the content and advertising you see.
Visit our Privacy Policy to learn more. By continuing to use the site, you agree to this use of cookies and data.
  • în România
  • Lista ţărilor
  • Pe 7 zile
  • Temperatura apei
  • Hartă satelitară
  • Meteo pe hartă
  • Widget-uri
  • user-avatar
    Intrare

    Meteo pe oră la Kaprun

    Astăzi, 18 Februarie, Luni

    Timp Temperatura Precipitaţii Vânt Presiune Umiditate
    00:00 -6°C° 0 mm 2 m/s 598 mmHg 26%
    01:00 -6°C° 0 mm 2 m/s 598 mmHg 24%
    02:00 -6°C° 0 mm 2 m/s 598 mmHg 24%
    03:00 -6°C° 0 mm 2 m/s 598 mmHg 25%
    04:00 -6°C° 0 mm 2 m/s 597 mmHg 25%
    05:00 -6°C° 0 mm 2 m/s 597 mmHg 26%
    06:00 -6°C° 0 mm 2 m/s 597 mmHg 26%
    07:00 -6°C° 0 mm 2 m/s 597 mmHg 25%
    08:00 -4°C° 0 mm 2 m/s 598 mmHg 35%
    09:00 -2°C° 0 mm 2 m/s 598 mmHg 46%
    10:00 +1°C° 0 mm 2 m/s 599 mmHg 56%
    11:00 +1°C° 0 mm 2 m/s 599 mmHg 66%
    12:00 +2°C° 0 mm 2 m/s 599 mmHg 76%
    13:00 +3°C° 0 mm 2 m/s 599 mmHg 83%
    14:00 +2°C° 0 mm 2 m/s 598 mmHg 80%
    15:00 +2°C° 0 mm 2 m/s 598 mmHg 78%
    16:00 +1°C° 0 mm 2 m/s 597 mmHg 76%
    17:00 -2°C° 0 mm 2 m/s 596 mmHg 68%
    18:00 -3°C° 0 mm 2 m/s 596 mmHg 60%
    19:00 -5°C° 0 mm 2 m/s 595 mmHg 52%
    20:00 -5°C° 0 mm 2 m/s 595 mmHg 50%
    21:00 -6°C° 0 mm 2 m/s 595 mmHg 48%
    22:00 -6°C° 0 mm 2 m/s 595 mmHg 46%
    23:00 -6°C° 0 mm 2 m/s 595 mmHg 45%

    Mâine, 19 Februarie, Marţi

    Timp Temperatura Precipitaţii Vânt Presiune Umiditate
    00:00 -6°C° 0 mm 2 m/s 595 mmHg 45%
    01:00 -6°C° 0 mm 2 m/s 595 mmHg 44%
    02:00 -6°C° 0 mm 2 m/s 595 mmHg 44%
    03:00 -6°C° 0 mm 2 m/s 595 mmHg 43%
    04:00 -6°C° 0 mm 1 m/s 595 mmHg 43%
    05:00 -6°C° 0 mm 1 m/s 595 mmHg 44%
    06:00 -6°C° 0 mm 1 m/s 595 mmHg 46%
    07:00 -7°C° 0 mm 1 m/s 595 mmHg 47%
    08:00 -4°C° 0 mm 1 m/s 595 mmHg 55%
    09:00 -2°C° 0 mm 1 m/s 596 mmHg 62%
    10:00 0°C° 0 mm 1 m/s 597 mmHg 70%
    11:00 0°C° 0 mm 1 m/s 597 mmHg 74%
    12:00 +1°C° 0 mm 1 m/s 597 mmHg 78%
    13:00 +1°C° 0 mm 1 m/s 597 mmHg 82%
    14:00 +1°C° 0 mm 1 m/s 597 mmHg 84%
    15:00 +1°C° 0 mm 1 m/s 596 mmHg 86%
    16:00 0°C° 0 mm 1 m/s 596 mmHg 88%
    17:00 -2°C° 0 mm 1 m/s 596 mmHg 88%
    18:00 -3°C° 0 mm 1 m/s 595 mmHg 88%
    19:00 -6°C° 0 mm 1 m/s 595 mmHg 87%
    20:00 -6°C° 0 mm 1 m/s 595 mmHg 83%
    21:00 -7°C° 0 mm 1 m/s 595 mmHg 80%
    22:00 -7°C° 0 mm 1 m/s 595 mmHg 76%
    23:00 -7°C° 0 mm 1 m/s 595 mmHg 74%

    Poimâine, 20 Februarie, Miercuri

    Timp Temperatura Precipitaţii Vânt Presiune Umiditate
    00:00 -7°C° 0 mm 1 m/s 595 mmHg 72%
    01:00 -7°C° 0 mm 1 m/s 596 mmHg 70%
    02:00 -7°C° 0 mm 1 m/s 595 mmHg 69%
    03:00 -7°C° 0 mm 1 m/s 595 mmHg 69%
    04:00 -7°C° 0 mm 1 m/s 595 mmHg 69%
    05:00 -7°C° 0 mm 1 m/s 595 mmHg 70%
    06:00 -7°C° 0 mm 1 m/s 596 mmHg 72%
    07:00 -7°C° 0 mm 1 m/s 596 mmHg 73%
    08:00 -4°C° 0 mm 1 m/s 597 mmHg 75%
    09:00 -2°C° 0 mm 1 m/s 598 mmHg 77%
    10:00 -2°C° 0 mm 0 m/s 599 mmHg 79%
    11:00 -1°C° 0 mm 0 m/s 599 mmHg 82%
    12:00 0°C° 0 mm 1 m/s 599 mmHg 84%
    13:00 +1°C° 0 mm 1 m/s 599 mmHg 87%
    14:00 +1°C° 0 mm 1 m/s 599 mmHg 89%
    15:00 +1°C° 0 mm 1 m/s 599 mmHg 90%
    16:00 0°C° 0 mm 1 m/s 598 mmHg 92%
    17:00 -1°C° 0 mm 1 m/s 598 mmHg 92%
    18:00 -2°C° 0 mm 1 m/s 598 mmHg 92%
    19:00 -3°C° 0 mm 1 m/s 598 mmHg 92%
    20:00 -3°C° 0 mm 1 m/s 598 mmHg 89%
    21:00 -3°C° 0 mm 1 m/s 599 mmHg 85%
    22:00 -3°C° 0 mm 1 m/s 599 mmHg 82%
    23:00 -4°C° 0 mm 1 m/s 599 mmHg 79%

    21 Februarie, Joi

    Timp Temperatura Precipitaţii Vânt Presiune Umiditate
    00:00 -4°C° 0 mm 1 m/s 599 mmHg 76%
    01:00 -4°C° 0 mm 1 m/s 599 mmHg 73%
    02:00 -4°C° 0 mm 1 m/s 599 mmHg 71%
    03:00 -4°C° 0 mm 1 m/s 599 mmHg 69%
    04:00 -4°C° 0 mm 1 m/s 599 mmHg 67%
    05:00 -4°C° 0 mm 1 m/s 599 mmHg 67%
    06:00 -4°C° 0 mm 1 m/s 600 mmHg 67%
    07:00 -4°C° 0 mm 1 m/s 600 mmHg 67%
    08:00 -2°C° 0 mm 1 m/s 600 mmHg 70%
    09:00 -1°C° 0 mm 1 m/s 601 mmHg 74%
    10:00 +1°C° 0 mm 1 m/s 602 mmHg 77%
    11:00 +1°C° 0 mm 1 m/s 602 mmHg 80%
    12:00 +2°C° 0 mm 1 m/s 602 mmHg 83%
    13:00 +2°C° 0 mm 1 m/s 602 mmHg 86%
    14:00 +2°C° 0 mm 1 m/s 602 mmHg 86%
    15:00 +1°C° 0 mm 1 m/s 602 mmHg 87%
    16:00 +1°C° 0 mm 1 m/s 601 mmHg 88%
    17:00 0°C° 0 mm 1 m/s 602 mmHg 86%
    18:00 -2°C° 0 mm 2 m/s 602 mmHg 84%
    19:00 -3°C° 0 mm 2 m/s 602 mmHg 81%
    20:00 -3°C° 0 mm 2 m/s 602 mmHg 82%
    21:00 -4°C° 0 mm 2 m/s 602 mmHg 82%
    22:00 -4°C° 0 mm 2 m/s 602 mmHg 82%
    23:00 -4°C° 0 mm 2 m/s 602 mmHg 82%

    22 Februarie, Vineri

    Timp Temperatura Precipitaţii Vânt Presiune Umiditate
    00:00 -5°C° 0 mm 2 m/s 602 mmHg 83%
    01:00 -5°C° 0 mm 2 m/s 602 mmHg 84%
    02:00 -5°C° 0 mm 2 m/s 602 mmHg 83%
    03:00 -6°C° 0 mm 2 m/s 602 mmHg 83%
    04:00 -6°C° 0 mm 2 m/s 602 mmHg 82%
    05:00 -6°C° 0 mm 2 m/s 602 mmHg 82%
    06:00 -6°C° 0 mm 2 m/s 602 mmHg 82%
    07:00 -6°C° 0 mm 2 m/s 602 mmHg 83%
    08:00 -5°C° 0 mm 2 m/s 603 mmHg 82%
    09:00 -3°C° 0 mm 2 m/s 604 mmHg 81%
    10:00 -2°C° 0 mm 3 m/s 605 mmHg 80%
    11:00 -2°C° 0 mm 3 m/s 605 mmHg 82%
    12:00 -1°C° 0 mm 3 m/s 605 mmHg 85%
    13:00 -1°C° 0 mm 3 m/s 605 mmHg 87%
    14:00 -1°C° 0 mm 3 m/s 605 mmHg 88%
    15:00 -1°C° 0 mm 3 m/s 605 mmHg 89%
    16:00 -2°C° 0 mm 3 m/s 605 mmHg 90%
    17:00 -2°C° 0 mm 2 m/s 605 mmHg 91%
    18:00 -3°C° 0 mm 2 m/s 605 mmHg 93%
    19:00 -4°C° 0 mm 2 m/s 605 mmHg 94%
    20:00 -4°C° 0 mm 2 m/s 605 mmHg 94%
    21:00 -3°C° 0 mm 1 m/s 605 mmHg 93%
    22:00 -3°C° 0 mm 1 m/s 605 mmHg 92%
    23:00 -3°C° 0 mm 1 m/s 605 mmHg 91%

    23 Februarie, Sâmbătă

    Timp Temperatura Precipitaţii Vânt Presiune Umiditate
    00:00 -3°C° 0 mm 1 m/s 605 mmHg 89%
    01:00 -4°C° 0 mm 1 m/s 605 mmHg 87%
    02:00 -4°C° 0 mm 1 m/s 605 mmHg 85%
    03:00 -4°C° 0 mm 1 m/s 605 mmHg 83%
    04:00 -4°C° 0 mm 1 m/s 605 mmHg 82%
    05:00 -4°C° 0 mm 1 m/s 605 mmHg 77%
    06:00 -3°C° 0 mm 1 m/s 605 mmHg 72%
    07:00 -3°C° 0 mm 1 m/s 605 mmHg 68%
    08:00 -2°C° 0 mm 1 m/s 606 mmHg 68%
    09:00 0°C° 0 mm 1 m/s 606 mmHg 69%
    10:00 +2°C° 0 mm 1 m/s 607 mmHg 69%
    11:00 +3°C° 0 mm 1 m/s 607 mmHg 72%
    12:00 +3°C° 0 mm 1 m/s 607 mmHg 74%
    13:00 +4°C° 0 mm 1 m/s 607 mmHg 77%
    14:00 +3°C° 0 mm 1 m/s 607 mmHg 78%
    15:00 +3°C° 0 mm 1 m/s 607 mmHg 79%
    16:00 +3°C° 0 mm 1 m/s 606 mmHg 80%
    17:00 +1°C° 0 mm 1 m/s 606 mmHg 75%
    18:00 0°C° 0 mm 1 m/s 606 mmHg 70%
    19:00 -1°C° 0 mm 1 m/s 605 mmHg 65%
    20:00 -1°C° 0 mm 1 m/s 605 mmHg 64%
    21:00 -3°C° 0 mm 2 m/s 606 mmHg 63%
    22:00 -3°C° 0 mm 2 m/s 606 mmHg 62%
    23:00 -1°C° 0 mm 1 m/s 606 mmHg 62%
    Arată mai mult